Theta_e
348 349 349 349 349 349 349 348 347 346 346 345 343 340 339 338 338 338 337 336 336 336 335 335 333 330 330 332 335 335 335 335 336 335 335 336 336 336 336 336 336 336 336 337 337 338 339 340 340 339 339 338 338 338 336 333 330 327 327 326 327 329 332 335 335 333 330 330 330 330 330 331 330 329 329 328 328 328 328 328 328 329 330 330 331
349 349 349 349 349 349 348 348 348 347 347 346 344 341 339 338 338 338 338 337 336 336 335 334 332 331 330 331 333 335 335 335 335 336 336 336 336 336 336 336 336 335 336 335 335 335 336 337 337 337 338 338 337 337 337 336 334 330 328 327 328 329 330 332 333 332 331 329 330 330 330 331 331 330 331 330 330 330 329 328 327 327 327 328 329
349 349 349 349 349 349 349 348 348 348 348 347 345 343 339 338 338 338 338 337 336 335 334 333 332 331 330 331 332 333 333 334 333 334 334 335 335 336 336 336 336 335 335 334 334 334 334 333 334 334 336 337 336 336 336 336 336 335 332 331 329 329 329 330 331 332 332 330 330 330 330 330 330 330 331 332 332 332 331 330 329 328 327 326 326
349 349 349 349 349 349 349 349 349 348 348 348 347 345 342 340 338 337 337 337 336 334 334 333 332 331 330 330 331 333 333 332 332 333 333 334 335 335 335 335 334 334 334 333 333 333 333 332 332 333 334 335 335 336 336 336 335 335 335 334 334 333 331 331 331 331 332 331 329 328 329 329 329 329 331 331 331 332 332 331 331 330 329 329 327
349 349 349 349 349 349 349 349 349 349 348 348 348 347 345 343 340 337 337 337 335 335 334 333 332 331 330 329 330 331 332 332 331 332 333 333 333 333 334 333 333 332 332 332 332 332 332 331 330 331 333 334 334 335 335 336 336 336 335 335 335 335 335 335 334 333 333 332 331 330 331 331 331 331 331 332 332 331 332 331 331 330 330 330 329
349 349 349 349 349 349 349 349 349 348 348 348 348 348 347 345 342 339 337 337 336 335 335 334 333 331 330 329 329 329 330 330 330 330 331 332 333 333 333 333 332 332 331 331 331 331 332 331 330 331 332 332 332 332 332 333 334 334 335 335 336 336 336 336 337 336 336 335 335 335 334 334 335 334 334 335 335 334 333 332 330 329 329 329 329
349 349 350 349 349 350 349 349 349 348 348 348 349 349 348 347 345 342 338 337 337 335 335 335 333 332 331 330 329 329 329 329 329 329 329 329 331 331 331 332 332 331 332 332 332 332 331 332 332 331 332 331 331 331 332 332 332 332 332 333 334 335 335 335 336 336 336 337 336 336 336 336 337 336 336 336 337 336 335 334 333 332 332 332 332
350 350 349 349 349 350 349 349 348 348 348 349 349 349 349 348 347 345 343 340 337 336 335 335 334 333 332 331 330 330 330 329 328 328 328 328 329 330 330 331 332 332 332 331 332 332 331 331 332 331 332 332 332 332 332 332 333 333 332 332 334 334 335 335 335 336 336 336 336 335 334 335 335 335 335 336 336 335 335 336 336 335 334 335 336
350 350 350 350 350 349 349 349 349 349 349 349 349 349 349 349 349 347 345 341 338 336 335 335 335 335 334 332 331 330 330 329 328 328 328 328 328 329 329 330 331 332 332 332 332 331 332 332 332 332 332 332 332 333 333 333 333 333 333 333 334 335 335 336 336 336 337 337 336 335 335 335 335 334 334 334 334 333 333 336 336 334 335 336 337
350 350 350 350 349 349 349 349 350 349 349 350 350 350 350 350 349 349 347 343 339 338 336 336 335 335 334 333 332 331 330 328 328 328 328 328 329 328 329 330 330 331 331 332 332 332 332 332 332 332 333 333 333 334 334 335 335 335 335 335 337 337 338 339 338 338 339 339 339 339 339 338 337 336 335 334 333 333 334 335 336 336 337 338 337
350 350 350 351 350 350 350 350 350 350 350 350 350 350 350 350 351 350 349 347 343 341 339 338 336 336 335 335 334 332 330 329 328 328 328 328 329 329 329 330 330 330 331 331 332 332 333 333 333 334 334 334 335 336 336 338 338 339 339 339 340 341 342 342 342 342 342 342 341 341 342 341 339 339 338 336 335 336 336 338 339 340 341 341 341
351 351 350 351 351 350 350 350 351 350 350 350 350 350 351 351 351 351 351 350 347 345 343 340 338 337 336 336 334 333 332 330 329 329 329 329 329 329 330 330 330 330 331 331 332 332 333 334 334 335 335 336 337 339 340 341 343 343 343 343 344 344 345 345 345 346 345 345 345 345 345 344 343 343 343 342 342 343 343 344 345 345 345 345 345
350 350 351 351 351 351 351 351 351 350 350 350 351 351 352 352 351 352 352 351 350 349 347 343 341 339 339 337 336 335 333 331 331 331 330 330 330 330 330 330 330 330 331 331 332 333 334 335 336 336 337 339 341 342 344 345 345 347 347 347 347 348 347 348 349 349 349 349 349 349 348 348 348 349 349 349 350 350 350 350 350 349 350 349 349
351 351 351 351 352 351 351 351 351 351 350 351 351 351 352 352 352 352 352 353 353 351 349 346 343 341 340 338 337 336 335 333 332 332 331 330 330 331 331 331 332 332 332 333 333 334 335 336 337 338 340 341 343 345 346 347 348 349 350 350 350 350 351 351 352 352 353 353 353 353 353 354 354 355 355 355 355 354 354 354 353 352 351 351 350
351 351 351 352 352 351 352 352 351 351 351 352 352 352 352 352 352 352 354 354 354 354 351 349 346 344 342 340 338 337 335 334 333 333 332 332 332 332 332 333 333 333 334 334 335 336 337 339 339 340 342 344 345 346 348 349 350 351 351 352 352 352 353 354 354 355 355 355 356 356 357 357 358 358 358 358 357 356 356 355 354 353 351 349 348
351 351 352 351 352 352 351 352 352 352 352 352 353 353 353 352 353 354 355 355 356 356 355 354 352 349 347 345 343 339 335 334 334 334 334 334 334 335 335 335 335 335 335 335 336 337 339 340 341 342 344 345 345 347 348 350 351 352 353 353 353 354 354 355 356 356 357 357 358 358 358 359 359 359 359 359 358 358 357 355 354 352 349 346 345
351 351 351 351 352 352 352 352 352 352 352 353 354 353 353 353 354 355 356 357 357 358 358 357 356 353 352 350 347 342 336 334 335 335 335 336 337 338 337 337 336 337 336 336 338 339 341 342 344 344 345 346 347 348 350 351 352 353 353 354 354 355 356 356 356 357 358 359 359 359 359 359 360 360 360 360 360 359 356 354 355 353 346 344 345
350 351 351 351 351 351 351 351 352 352 353 353 354 354 354 354 355 356 358 358 359 359 359 360 359 357 356 353 349 344 339 335 336 337 337 339 340 340 339 339 339 338 338 338 339 341 342 343 344 346 346 347 348 349 351 352 353 354 355 355 356 357 357 357 358 358 359 359 359 360 360 360 360 360 360 359 359 359 357 357 357 353 344 341 344
350 350 350 349 350 350 351 351 352 351 353 353 353 355 356 357 358 358 359 360 360 360 361 361 360 360 359 357 355 352 348 342 341 341 342 343 344 343 342 342 341 341 340 340 341 342 344 344 346 347 348 349 349 351 352 353 354 355 356 357 357 357 358 358 358 358 359 359 360 360 360 360 360 361 360 358 357 358 359 358 358 353 346 341 340
349 349 350 350 350 351 351 351 352 352 354 354 355 356 357 358 359 359 360 360 360 361 361 361 361 362 361 360 359 358 355 351 349 348 347 347 346 345 345 344 343 342 343 343 344 345 345 347 347 348 350 351 352 353 354 355 356 357 357 357 358 358 359 359 359 359 360 360 360 360 360 360 360 361 360 358 357 357 357 356 356 354 351 348 344
350 349 350 351 351 352 352 352 353 354 354 355 356 357 358 358 359 360 361 361 361 362 362 362 362 363 362 362 361 360 359 357 355 353 352 351 350 348 348 347 346 346 346 346 347 347 347 348 350 350 352 353 354 355 356 357 357 358 358 358 359 359 360 360 360 360 360 360 361 360 360 360 361 361 360 358 357 356 355 354 353 353 353 352 350
352 351 352 351 352 353 353 353 355 355 355 355 356 357 357 359 359 360 361 362 362 362 362 363 363 363 363 363 362 362 360 359 357 357 355 354 353 352 351 350 350 350 350 350 350 350 351 351 352 353 355 355 356 357 358 359 359 359 360 360 361 361 361 360 361 361 361 361 360 360 360 360 360 360 359 358 357 356 355 355 353 350 347 345 345
352 352 352 352 353 354 354 354 355 355 356 356 356 357 358 359 361 361 362 362 363 363 363 363 363 363 363 363 362 362 361 360 359 358 357 356 356 355 354 354 353 353 353 352 353 353 353 354 355 356 357 357 358 359 360 360 361 361 361 362 362 362 362 362 361 361 360 361 360 360 359 360 360 359 357 356 356 354 353 351 347 342 336 332 333
353 354 354 354 354 355 355 356 356 357 358 358 358 358 360 360 361 362 362 363 363 364 364 363 364 363 363 363 363 362 362 361 360 359 358 358 357 357 356 356 355 355 355 354 354 355 355 356 357 358 358 359 360 360 360 361 361 362 362 363 362 363 362 362 362 362 361 360 360 360 359 358 357 354 349 347 345 342 339 336 333 330 329 328 327
358 358 358 358 358 358 359 359 359 359 360 360 360 361 361 362 362 362 363 363 363 363 364 364 364 364 363 363 363 362 362 361 361 360 360 359 358 358 358 357 357 357 357 356 356 357 357 358 359 360 360 360 360 361 361 361 362 362 362 363 363 363 363 363 361 360 360 359 358 357 355 352 348 341 336 332 331 330 328 327 327 327 327 327 327
359 359 359 358 358 358 357 358 359 359 359 360 360 360 360 361 361 362 362 363 363 364 363 363 363 364 364 363 363 362 362 361 361 360 360 360 359 359 360 359 359 359 359 359 359 359 360 360 361 361 361 361 361 361 362 361 362 363 363 363 362 362 361 360 359 359 357 354 351 347 343 338 334 330 328 327 327 327 327 326 326 327 327 327 327
358 357 357 355 355 355 355 355 356 356 356 358 358 359 359 360 360 361 361 362 362 363 363 363 363 363 363 363 362 362 362 362 362 362 361 360 361 361 361 362 362 362 361 361 360 361 361 361 362 362 361 362 362 361 362 362 362 363 363 361 360 359 359 357 355 352 348 343 338 334 331 329 327 327 327 326 326 326 326 326 326 326 327 327 327
354 355 355 354 353 353 353 353 354 354 354 355 355 357 358 358 359 359 359 360 360 361 361 362 362 362 362 362 362 362 362 362 362 362 361 362 363 363 363 363 363 363 363 362 362 362 361 362 362 362 362 362 362 362 362 361 360 360 360 359 357 355 351 346 342 337 334 330 328 327 326 326 326 326 326 326 326 326 326 326 326 326 326 326 326
348 349 350 350 350 351 351 352 352 353 353 355 355 355 357 358 358 358 357 358 359 359 360 361 361 362 362 362 363 363 363 363 363 363 363 364 364 364 364 365 364 364 363 363 362 362 362 362 362 363 363 363 363 362 361 360 359 359 358 355 350 343 338 333 330 328 327 326 326 326 325 325 325 325 325 325 326 326 326 326 325 325 325 325 325
343 344 346 346 346 347 347 348 351 353 353 354 354 355 355 355 357 358 358 358 359 359 360 361 362 363 363 363 363 364 364 364 364 365 365 365 365 366 365 365 364 363 363 363 363 363 362 363 364 364 364 363 362 360 359 358 356 353 348 342 336 331 328 327 326 326 326 325 325 325 325 325 325 325 325 325 325 324 325 325 325 325 325 325 325
345 348 349 349 346 345 346 348 351 352 354 355 355 355 355 356 356 358 358 359 359 360 361 362 362 363 363 364 365 365 365 365 366 366 366 366 366 365 365 364 364 364 363 363 363 363 364 364 364 363 362 361 360 359 357 352 346 339 334 330 328 326 326 326 325 325 325 325 324 324 324 324 324 324 324 324 323 324 324 324 325 324 324 325 326
349 351 353 354 353 350 349 352 354 355 356 356 357 357 357 357 358 358 358 359 360 360 362 363 363 364 365 365 366 366 366 366 366 366 366 366 366 365 364 364 364 363 363 363 363 363 362 362 362 361 360 358 354 350 345 338 332 328 327 326 326 325 325 324 324 324 324 324 324 324 323 323 323 322 323 323 323 323 323 323 324 324 324 325 325
352 353 355 357 358 356 355 356 356 356 358 359 359 359 360 359 359 359 359 360 361 361 363 364 365 366 367 366 365 365 365 366 366 367 366 366 365 364 364 364 364 363 363 362 361 360 360 358 356 354 351 345 338 333 330 327 326 326 325 324 324 324 324 323 323 323 323 323 323 322 322 322 321 322 322 323 323 323 323 323 323 323 324 325 326
355 356 357 359 361 362 361 360 359 358 360 361 362 362 362 362 362 362 362 362 362 363 364 365 366 367 367 366 365 366 366 366 366 365 366 366 365 363 362 362 362 361 359 356 354 353 352 349 344 339 334 330 327 326 325 325 325 324 323 323 323 323 323 323 323 323 323 323 322 321 321 321 321 322 321 322 322 322 322 323 323 323 323 324 325
357 358 359 360 362 363 364 364 362 362 362 363 364 364 364 364 364 364 364 364 364 363 364 365 366 366 366 365 365 366 367 366 365 364 364 364 363 361 360 359 358 357 355 351 347 343 339 334 330 328 326 325 325 324 324 323 323 322 323 322 323 323 322 322 322 322 322 321 320 320 320 320 320 321 320 320 320 321 321 322 322 322 323 323 324
355 357 359 361 362 362 364 364 365 365 365 365 364 365 365 366 365 366 366 366 365 364 364 364 364 364 364 365 365 366 365 363 362 362 361 359 356 352 349 348 348 346 343 339 335 331 328 326 325 325 324 323 323 322 322 322 322 322 322 322 322 322 322 322 321 321 320 320 319 320 320 320 319 320 319 319 319 319 320 321 322 322 323 323 323
352 354 356 357 359 361 362 363 363 365 367 367 367 366 366 367 366 366 366 365 365 365 364 363 362 362 362 361 360 361 360 356 353 352 352 351 348 342 336 333 332 331 329 327 326 325 324 324 323 322 322 322 322 322 322 322 322 321 322 321 321 321 321 321 321 320 319 319 319 319 319 319 319 318 318 318 318 318 319 320 321 322 322 322 323
350 351 351 353 355 357 359 361 363 365 366 367 367 366 367 366 366 365 365 364 363 363 364 363 361 360 359 356 353 353 352 348 344 341 340 339 337 334 329 326 325 325 325 324 323 323 322 322 321 321 321 321 321 321 321 321 321 321 320 320 320 320 320 320 319 319 318 319 318 318 318 318 318 318 318 318 318 318 319 320 321 321 322 322 322
347 348 349 350 351 352 355 358 360 362 364 365 363 363 364 363 363 362 362 360 358 357 357 355 352 348 345 343 340 338 337 335 332 330 328 328 327 326 325 324 324 324 323 322 321 321 321 321 321 320 320 320 321 320 320 320 320 319 319 319 319 319 319 319 319 318 319 319 318 319 319 318 318 318 318 318 318 318 318 319 320 320 321 321 322
346 347 348 348 348 349 351 354 357 359 361 361 360 360 359 359 358 358 356 355 352 347 341 338 336 333 330 329 328 327 327 326 325 325 324 324 324 324 324 324 324 322 321 320 320 320 320 320 320 320 320 320 319 319 319 319 319 319 319 319 319 319 318 319 319 319 319 319 319 319 319 319 319 319 318 318 318 318 318 318 319 319 320 321 321
345 346 347 347 347 348 350 353 355 355 355 356 355 354 354 353 352 350 346 344 341 337 332 328 327 326 325 325 325 325 324 324 324 324 324 324 324 324 324 324 324 323 321 319 319 319 319 319 319 319 319 319 319 319 319 318 319 319 318 318 318 319 319 319 319 319 319 319 319 319 319 319 319 319 319 318 318 318 317 317 317 318 319 320 321
344 345 345 346 347 348 350 352 352 352 352 352 351 350 350 349 346 342 338 335 333 331 329 328 326 326 325 325 325 324 324 324 324 324 324 324 324 324 324 324 324 324 323 322 320 319 319 319 319 319 318 319 319 318 318 319 319 318 319 319 319 319 319 319 320 319 319 319 319 319 319 318 318 318 318 318 318 318 317 316 316 316 317 319 320
344 344 344 344 345 347 349 349 349 350 349 349 348 347 346 345 342 337 334 332 329 328 328 327 326 326 326 325 325 324 324 324 324 324 323 323 323 324 324 325 324 325 325 324 322 320 320 319 319 319 319 319 319 318 318 318 318 319 319 319 319 319 319 319 319 319 319 320 320 319 319 319 318 318 318 318 318 318 318 317 316 316 316 317 319
343 343 343 344 344 345 346 346 346 346 345 345 344 342 341 340 337 333 330 329 327 326 326 326 326 327 327 326 326 326 325 325 325 325 325 325 325 324 325 325 325 325 325 325 325 323 322 321 321 319 319 318 318 318 318 318 318 318 318 319 318 319 318 319 319 319 319 319 320 320 320 320 319 318 317 317 317 318 318 317 316 316 316 316 316
342 342 343 342 343 344 344 343 343 342 340 339 338 336 334 333 331 329 328 326 326 326 326 326 327 328 328 328 328 328 327 327 327 327 327 327 328 328 328 327 327 327 327 326 326 326 325 324 323 322 320 320 319 319 318 318 318 318 318 318 318 318 318 318 318 319 319 319 319 320 320 320 320 320 319 317 317 318 318 317 316 316 316 316 316
342 341 341 341 341 342 341 341 340 338 336 334 332 331 329 329 327 327 327 327 327 328 328 328 329 329 329 329 330 329 329 329 329 329 329 330 330 330 330 330 329 329 329 329 328 328 328 327 326 325 324 324 323 323 321 320 319 318 318 318 318 318 318 318 318 319 319 319 319 319 320 320 321 321 321 320 319 319 318 317 317 316 315 316 317
340 340 340 340 340 340 339 337 336 335 332 330 328 328 327 327 327 327 329 330 330 330 330 330 330 331 331 331 331 331 330 331 330 330 331 331 331 331 331 330 330 330 330 330 330 330 329 329 328 328 327 327 326 326 325 324 323 322 320 318 318 318 318 318 318 319 319 320 320 320 320 320 321 322 322 322 322 321 319 317 316 316 315 314 315
338 339 338 338 338 338 337 336 334 333 330 329 328 328 328 329 330 331 331 331 331 332 332 332 332 332 332 332 331 331 331 331 331 331 330 330 330 330 331 330 331 331 330 330 330 329 329 329 329 329 328 327 327 327 327 326 326 325 323 321 320 319 319 319 319 319 319 320 320 321 322 322 322 323 323 323 322 322 320 318 317 316 315 314 314
336 336 336 336 336 336 335 335 334 333 332 331 330 330 330 331 331 331 331 331 331 331 331 331 331 331 330 330 330 329 329 328 328 328 328 328 328 328 328 328 328 328 327 327 327 327 327 327 327 327 327 326 326 326 326 326 326 326 326 325 324 324 323 323 322 322 321 321 321 322 322 323 323 323 322 322 321 320 320 319 318 316 315 314 314
334 334 334 334 334 334 334 334 334 333 332 332 331 331 330 330 330 329 329 329 329 328 327 327 327 327 326 326 325 325 325 324 324 324 324 324 323 323 323 323 323 323 323 323 323 323 324 324 324 324 324 324 324 324 324 324 324 324 325 325 325 325 325 325 325 324 323 323 322 322 322 323 322 322 321 320 319 318 318 318 318 317 316 316 315
330 330 331 332 332 331 331 331 330 330 330 330 329 328 327 326 326 325 324 324 324 323 322 322 322 321 322 322 321 321 321 321 320 320 320 319 319 318 319 319 319 319 319 320 320 320 321 321 321 321 321 322 322 322 322 322 322 322 322 322 323 323 323 323 323 323 323 323 323 322 322 322 321 321 320 319 318 318 317 317 317 317 317 317 316
Wind_Speed
47 46 44 42 41 39 37 36 34 34 34 34 34 34 33 33 32 31 30 30 29 28 27 25 23 21 20 20 21 22 22 21 21 21 22 23 22 22 22 22 22 20 19 18 17 17 17 17 16 15 15 15 14 14 14 15 17 18 18 19 19 21 23 24 27 27 23 21 19 18 18 19 19 18 19 19 19 20 21 21 21 22 22 22 22
48 47 45 43 42 40 38 37 36 35 34 33 33 33 33 33 33 32 32 31 30 30 28 26 24 23 22 22 22 22 22 22 22 22 22 23 23 23 23 23 22 21 20 20 19 18 18 18 17 16 16 17 16 15 15 15 17 19 19 20 21 21 23 25 28 30 29 27 25 24 23 23 24 22 22 22 22 22 23 24 24 24 25 25 25
48 47 46 45 42 40 39 38 37 36 35 34 32 32 32 33 33 33 32 32 31 31 29 28 26 25 25 24 24 24 24 23 23 23 23 23 24 24 23 23 23 22 21 20 19 19 19 20 19 17 18 19 18 17 17 17 18 20 20 21 22 23 24 26 28 30 32 32 31 29 28 28 28 27 27 27 27 27 27 27 27 27 27 28 28
48 48 47 46 43 42 41 39 38 37 36 34 33 32 32 33 33 33 32 32 31 31 30 29 28 27 27 26 26 25 25 25 24 24 24 24 24 24 24 23 23 23 22 20 20 19 20 20 19 18 19 20 20 19 19 19 20 21 21 21 22 23 24 26 28 30 33 35 35 33 33 33 33 33 32 33 33 33 33 32 32 32 31 31 31
49 48 47 46 45 44 42 41 40 39 37 35 33 32 32 33 32 32 32 32 32 31 31 30 30 29 29 28 27 27 27 26 26 26 25 25 25 24 24 24 23 23 22 21 20 20 20 20 18 18 20 21 21 20 19 20 20 21 22 22 22 23 24 26 28 30 33 36 36 35 35 35 36 35 35 36 37 37 37 37 37 36 36 35 34
49 49 47 47 47 45 43 42 41 39 37 34 33 32 32 32 32 32 32 32 32 32 31 31 31 31 30 29 29 29 28 28 28 27 27 26 26 26 25 25 25 25 24 23 23 22 22 21 20 20 21 22 22 21 20 21 21 22 23 23 23 24 25 26 28 30 32 34 36 36 36 36 36 36 36 37 38 39 39 40 39 38 38 38 36
49 48 48 47 47 45 44 42 40 38 36 33 32 32 31 31 30 30 31 31 32 32 32 32 32 31 31 31 30 30 30 30 29 29 28 28 27 27 27 27 27 27 26 26 25 25 25 24 24 24 23 23 23 22 22 23 23 23 24 24 24 25 27 28 29 30 32 34 35 37 37 37 38 37 36 37 39 40 39 40 39 38 37 37 36
48 48 48 47 46 45 43 42 40 38 35 34 33 32 31 30 30 29 30 31 32 32 32 32 32 32 32 31 31 31 31 31 31 30 29 28 28 28 28 28 28 28 28 28 28 28 28 27 27 27 26 25 25 25 25 25 26 26 25 25 26 27 28 29 30 32 33 35 36 37 37 38 39 38 38 38 39 39 38 39 40 39 37 38 38
48 48 48 47 46 44 43 42 41 39 37 36 34 33 31 30 29 29 29 30 31 32 33 32 32 32 32 32 32 32 32 32 32 31 30 29 29 29 29 29 29 29 29 29 29 29 29 29 29 29 29 28 28 28 28 28 29 29 28 28 29 30 31 31 32 33 34 36 37 37 39 40 40 39 40 39 39 39 38 40 42 40 39 40 39
47 47 48 47 45 44 43 42 41 40 39 37 35 33 32 30 30 29 29 30 31 32 33 33 34 34 33 33 33 33 33 33 32 31 31 31 30 30 30 30 30 30 30 31 31 31 30 30 30 30 30 30 30 30 29 29 29 30 30 30 31 32 32 33 33 33 35 36 38 38 39 41 41 40 40 40 40 41 41 41 43 42 41 42 41
47 47 47 46 45 44 44 43 42 41 39 38 36 34 33 32 31 30 29 29 30 31 33 34 35 34 34 34 34 34 34 33 32 32 31 31 31 30 31 31 30 31 31 32 32 32 31 31 31 30 30 30 30 29 29 29 29 29 29 29 30 30 31 33 33 33 34 36 37 37 39 42 41 39 40 40 39 40 41 42 42 42 42 42 43
46 46 45 45 44 44 44 43 42 41 39 38 36 35 34 33 32 31 30 29 29 30 32 34 34 34 35 35 35 35 35 33 33 32 32 32 31 31 31 31 32 32 32 33 33 33 33 32 31 31 30 29 29 28 28 28 28 28 28 27 28 28 29 31 32 32 33 35 37 38 39 40 40 39 39 38 38 40 42 42 42 42 42 43 44
44 44 44 44 44 44 44 43 42 41 39 38 36 35 35 35 34 33 32 30 29 30 32 33 34 34 35 36 36 36 35 34 33 33 32 32 31 31 32 32 32 33 33 33 33 33 33 32 32 31 30 29 28 27 27 27 26 26 26 26 27 27 27 28 30 31 32 34 37 39 38 38 40 40 37 37 39 41 42 43 42 42 42 42 42
43 43 43 43 43 43 43 42 41 40 38 37 36 36 36 35 34 34 33 32 32 31 31 32 33 34 35 35 36 36 36 34 33 33 32 32 31 32 32 32 33 33 33 33 33 33 33 32 32 31 30 29 28 27 26 26 25 26 26 26 26 26 27 27 28 29 30 32 36 38 36 35 37 38 35 35 39 41 42 43 43 43 44 44 43
41 41 42 42 42 42 42 41 40 39 38 37 37 37 36 35 34 33 33 33 33 32 31 32 33 33 34 34 35 36 36 34 33 32 32 32 31 32 32 32 32 32 32 32 32 32 32 32 32 31 30 29 27 26 26 25 26 27 28 28 28 27 28 28 27 27 29 31 33 35 34 33 34 36 35 36 40 42 43 44 44 45 46 44 43
40 40 41 41 40 40 40 39 38 38 37 37 38 37 36 35 34 33 33 33 32 32 32 32 32 33 33 33 34 35 35 33 33 32 32 31 32 32 32 32 32 32 31 31 31 31 31 31 31 30 30 28 26 25 25 25 27 29 29 29 30 30 31 30 29 29 29 30 31 33 33 32 34 36 37 38 41 43 44 45 46 47 44 41 41
39 39 40 39 39 38 38 37 37 36 37 38 38 36 35 34 32 32 33 33 33 33 32 32 32 32 33 33 34 34 34 32 32 31 31 31 32 32 32 32 31 31 30 29 29 29 29 29 29 29 29 27 25 24 24 25 28 29 30 31 31 33 33 32 31 30 29 30 31 33 34 34 35 36 37 38 40 42 44 47 49 46 42 40 42
38 39 38 37 36 36 35 35 34 34 35 35 34 33 32 31 30 30 31 32 31 30 29 29 30 30 31 32 32 32 32 30 30 30 29 30 31 31 31 31 30 30 29 28 28 28 28 28 28 28 28 26 24 23 23 25 28 29 30 31 33 35 34 31 31 32 32 33 34 35 35 35 34 35 37 38 38 39 43 48 49 45 41 41 42
36 35 34 33 32 33 32 32 31 32 32 32 30 29 29 28 28 29 30 30 29 28 28 29 29 29 29 29 29 30 29 27 27 28 28 29 30 29 29 29 30 29 27 27 27 27 27 26 26 27 27 25 24 23 23 24 27 28 29 32 36 37 33 31 32 34 35 36 37 38 38 37 37 36 36 38 38 37 41 47 49 47 44 43 42
32 30 30 30 31 31 31 31 30 30 30 28 27 27 27 27 28 29 30 29 28 28 29 29 29 28 27 27 27 27 26 24 24 24 25 26 26 26 27 28 28 27 26 26 26 26 26 26 25 25 25 24 23 23 23 24 27 28 30 33 36 35 32 32 34 34 35 37 38 39 40 41 40 39 38 41 43 43 44 47 48 47 45 44 41
30 29 29 30 31 31 31 31 30 30 28 27 27 28 28 28 29 29 29 28 29 29 29 30 29 28 27 26 26 25 23 21 21 21 22 22 23 23 25 26 25 24 24 24 25 26 26 25 24 22 22 22 22 22 23 24 26 28 30 32 33 32 31 33 33 33 34 36 37 38 38 38 39 39 41 45 46 45 44 44 44 43 42 42 41
30 29 29 29 30 31 31 31 30 30 29 29 30 30 29 29 30 30 30 30 30 30 30 30 30 29 28 27 26 24 23 21 20 20 20 20 20 21 22 21 20 21 22 24 25 25 24 23 21 20 20 22 22 23 23 24 25 28 29 29 29 29 30 31 32 32 33 33 34 36 36 36 37 37 38 42 44 43 44 45 45 45 44 43 42
29 29 29 29 29 30 31 31 30 29 29 30 31 30 30 31 31 32 32 32 32 31 31 31 31 30 29 28 27 24 23 21 20 20 20 19 19 19 19 19 18 19 22 24 23 22 21 21 21 21 21 22 22 23 23 23 24 26 26 27 28 28 29 29 30 31 32 33 34 35 35 35 36 36 36 40 43 44 46 47 48 48 47 45 43
27 27 28 28 28 28 29 29 30 29 29 29 30 31 31 32 33 33 34 34 34 34 33 32 33 32 30 29 27 24 22 21 20 20 19 19 18 18 18 18 18 19 21 22 21 20 21 21 21 21 21 22 22 22 23 23 24 25 26 26 26 26 27 29 30 31 31 31 32 33 33 34 35 36 37 39 42 43 44 45 46 47 46 46 45
22 22 23 23 24 24 25 27 28 27 27 29 30 30 31 32 33 34 35 35 36 35 34 33 33 32 31 30 28 25 23 21 21 20 19 19 18 18 18 18 17 18 19 20 20 20 21 21 21 21 21 21 22 23 24 24 25 25 26 26 26 27 28 29 30 29 28 27 29 31 33 34 35 35 36 37 39 41 41 42 43 44 44 44 45
21 20 20 19 19 20 21 23 24 25 26 28 29 29 29 31 32 33 34 35 36 35 34 33 33 32 31 30 28 25 24 23 22 21 20 19 18 17 17 17 16 17 19 19 19 19 20 20 21 22 22 23 24 24 25 26 26 26 26 27 27 27 26 25 26 27 27 28 29 30 32 33 33 34 34 35 36 36 36 37 38 39 41 43 45
22 21 21 20 19 19 19 20 22 23 24 26 28 29 29 29 30 31 32 33 34 33 33 32 32 32 30 28 26 24 23 23 22 21 20 18 17 16 16 16 16 17 18 18 18 19 20 21 22 22 23 24 26 27 29 29 28 25 24 24 23 22 22 22 24 26 27 27 28 29 29 31 31 32 32 33 33 32 33 35 38 41 42 44 47
22 22 22 21 21 20 19 19 19 21 22 24 27 28 29 30 30 29 28 28 28 28 28 28 27 27 25 25 24 24 24 23 22 19 16 15 14 14 15 16 16 17 18 18 18 19 21 22 23 24 25 27 29 29 28 26 23 20 19 20 20 20 21 22 22 23 24 24 25 26 27 27 28 28 29 30 32 34 35 37 40 41 42 43 45
21 21 21 21 21 21 20 19 19 20 22 24 26 28 29 30 30 29 27 26 25 24 23 23 22 21 20 21 21 22 22 19 16 13 12 12 14 15 15 16 17 17 17 17 18 20 22 23 25 25 25 26 25 22 19 17 16 17 18 19 20 20 20 20 20 20 21 21 21 22 23 24 25 27 30 32 34 35 36 37 38 39 40 40 42
17 17 18 18 18 19 19 20 20 20 21 23 25 26 28 29 29 29 28 26 24 23 22 20 19 18 18 18 17 16 15 12 10 11 12 13 14 15 16 16 17 17 17 18 19 21 22 23 23 23 22 20 17 15 14 14 15 16 17 17 18 18 18 18 18 17 17 18 19 20 22 25 27 29 31 33 34 34 33 34 36 38 39 41 42
12 13 13 13 14 15 16 17 18 19 19 21 22 23 25 27 28 28 27 25 24 23 22 20 18 17 16 14 13 13 13 12 12 14 15 15 15 16 16 17 17 18 18 18 19 20 21 21 20 19 17 16 15 15 15 14 14 14 14 15 15 15 15 15 15 15 16 17 18 20 23 25 27 28 29 30 32 32 32 33 34 36 38 40 42
10 11 11 11 11 12 13 14 14 15 15 16 17 18 19 22 24 26 26 25 23 22 21 19 17 15 14 14 14 14 14 14 15 15 16 16 16 17 17 17 17 17 17 18 18 19 19 18 18 16 16 15 14 13 12 12 12 12 12 12 12 12 12 13 14 15 16 17 19 20 22 24 25 26 26 27 29 31 32 33 34 36 37 39 40
7 8 9 10 10 11 11 11 10 10 10 10 11 12 14 16 19 21 22 22 22 21 20 18 16 15 15 15 15 15 16 16 16 15 15 15 14 15 15 16 17 17 17 17 17 17 17 16 15 13 13 11 10 9 8 9 9 9 10 10 10 10 11 11 12 14 15 17 18 19 21 22 23 24 25 26 28 30 32 33 34 36 37 37 38
5 5 7 9 10 10 10 9 8 7 7 6 7 8 10 12 14 16 17 18 19 20 19 17 16 16 16 16 16 17 18 18 16 15 14 14 14 13 13 14 16 17 16 15 14 13 12 11 9 8 8 7 6 6 6 7 7 7 8 8 8 9 10 11 12 14 14 15 16 18 20 21 23 24 25 27 28 30 31 32 34 36 36 36 37
6 5 5 6 7 8 9 8 8 7 6 5 5 6 8 10 11 12 13 13 14 16 17 17 17 17 17 17 17 17 17 16 15 14 15 16 16 15 14 14 15 15 14 13 11 9 7 6 6 6 6 5 4 4 4 5 5 5 5 6 7 8 9 11 12 12 13 14 16 18 20 21 23 25 26 28 29 31 32 32 33 35 36 37 37
6 6 5 4 4 5 6 7 7 7 7 6 6 7 8 10 11 12 12 12 13 14 15 17 17 18 18 18 18 16 15 15 16 15 15 15 14 12 10 10 11 11 10 8 8 7 7 7 7 6 5 4 3 3 3 3 3 3 4 5 7 8 10 11 10 11 12 15 17 18 20 22 24 26 27 29 30 31 32 33 33 33 35 37 37
6 5 4 4 3 2 3 4 6 7 8 9 9 9 10 11 12 13 14 14 15 15 15 16 17 18 18 18 17 16 16 16 16 16 15 14 13 12 10 8 8 8 9 9 9 9 9 8 7 5 4 3 2 1 0 1 2 3 4 6 7 8 8 9 9 10 12 14 17 19 21 23 25 27 28 30 32 32 33 33 34 33 34 36 37
8 6 5 4 2 1 1 1 4 6 8 10 12 13 14 14 15 16 16 16 17 17 16 17 18 19 20 19 16 15 15 15 14 14 14 13 12 12 12 11 10 9 10 11 10 9 8 7 6 5 4 3 2 2 3 3 3 3 4 5 6 7 7 8 8 10 12 14 16 19 21 23 24 27 29 30 32 33 33 33 34 34 34 35 36
8 7 6 6 5 4 3 2 1 5 10 13 14 15 16 17 18 18 18 18 19 20 19 19 19 19 18 18 17 15 15 15 15 14 14 14 13 12 12 12 11 11 10 10 10 9 8 7 6 5 4 4 4 4 4 4 4 4 4 5 5 6 7 7 8 10 12 14 16 18 20 22 24 26 28 29 31 32 32 32 32 33 33 34 33
7 6 6 7 7 6 4 3 1 4 10 14 15 15 17 19 20 20 20 21 22 22 22 22 22 21 19 18 18 17 17 18 18 18 17 17 17 16 15 14 13 12 10 10 9 8 7 7 7 6 5 5 5 5 5 5 5 5 5 5 5 5 6 7 8 9 11 12 14 16 18 20 22 24 25 28 29 30 30 31 31 30 30 30 29
6 6 5 5 5 5 3 0 1 3 8 11 12 13 16 18 20 23 24 25 24 23 22 22 23 23 21 19 18 17 16 18 19 19 18 18 18 17 16 15 14 13 11 10 9 8 7 7 6 6 6 5 5 5 5 5 5 5 5 4 4 4 4 5 6 7 8 10 12 14 16 18 20 22 23 25 27 28 28 29 29 29 28 27 25
4 4 3 3 2 1 1 2 3 5 8 10 11 13 15 16 18 20 22 22 22 22 21 20 20 20 18 17 15 15 16 17 17 17 16 16 15 15 15 14 13 12 11 10 10 9 8 7 7 6 6 6 5 5 5 5 5 4 4 3 2 1 1 2 4 5 7 9 10 12 13 15 17 19 21 22 24 26 26 26 26 26 25 24 22
2 2 1 1 1 3 4 5 6 8 10 12 14 16 16 16 17 18 19 18 19 20 20 20 20 20 19 18 17 17 16 16 15 14 13 13 12 11 11 11 10 10 10 9 9 9 8 7 7 7 7 7 6 6 6 6 5 5 4 4 3 3 3 4 5 7 8 9 10 11 13 14 15 16 18 20 21 23 24 24 23 22 21 20 18
2 2 2 3 4 6 8 10 12 13 15 16 17 18 18 18 18 19 18 18 17 17 17 18 19 20 20 20 19 17 15 14 13 12 11 10 9 9 8 8 8 8 8 7 7 7 7 7 7 8 8 8 8 8 8 8 8 7 7 7 6 7 7 7 8 9 10 11 12 12 13 14 15 15 15 17 19 21 22 22 21 19 17 15 14
6 5 5 6 8 9 11 13 15 17 19 19 20 21 20 20 19 18 17 16 16 16 17 18 19 19 19 19 18 16 14 13 12 10 9 8 7 7 6 6 6 6 6 6 6 6 7 8 9 10 10 10 10 11 11 11 11 11 11 11 10 10 10 11 11 12 13 14 14 15 15 16 16 15 15 15 16 18 20 20 20 18 16 14 12
10 10 9 10 11 12 13 15 16 17 19 20 22 23 23 22 20 19 18 18 19 19 19 20 19 19 18 17 16 15 13 12 11 10 9 8 7 7 6 6 6 6 6 6 7 7 8 9 10 11 12 13 13 14 14 15 15 16 16 16 15 15 15 15 16 16 17 18 18 18 19 18 17 17 16 15 15 16 17 17 18 17 15 13 12
14 14 14 14 15 15 17 18 19 19 20 22 23 24 24 23 22 21 21 21 20 20 19 19 18 17 16 15 14 13 12 11 10 10 9 9 8 8 8 8 8 8 9 10 10 10 11 12 13 14 15 15 15 15 16 17 18 19 20 20 20 20 20 21 21 21 21 22 22 22 22 21 20 18 17 15 15 15 15 15 16 15 13 12 11
17 18 19 19 18 19 20 21 22 23 24 24 24 24 24 24 22 21 21 20 19 18 17 15 14 13 11 11 10 9 9 8 8 8 8 8 8 8 8 9 10 11 12 12 13 13 14 15 16 17 18 17 18 18 19 19 19 20 21 22 23 24 25 25 26 25 24 24 23 23 23 22 21 18 17 16 14 13 13 14 14 13 12 11 10
16 18 20 21 21 21 22 23 23 24 25 25 24 24 23 22 20 19 18 17 16 15 13 12 11 10 9 8 7 7 6 6 6 5 5 5 5 5 5 5 6 7 8 8 9 10 11 12 13 15 15 16 17 18 19 19 19 20 22 23 24 25 26 27 28 28 27 26 24 23 23 22 20 18 16 15 13 12 12 13 13 13 12 11 9
19 20 21 21 22 22 22 22 23 23 23 22 22 21 19 17 16 15 14 13 12 12 11 10 10 9 8 7 6 5 4 4 4 3 3 2 2 2 2 3 4 5 6 7 8 8 9 10 11 12 13 14 15 16 17 18 18 19 21 23 24 25 25 26 27 27 27 26 24 23 22 21 19 17 15 13 11 10 9 10 12 13 14 13 12
20 20 21 22 22 22 21 21 21 21 20 19 18 18 17 16 16 15 14 13 12 12 12 11 11 11 10 9 8 8 7 6 6 5 4 4 3 3 3 3 3 4 5 6 6 7 8 9 10 10 11 12 13 13 13 14 15 15 16 17 19 20 21 21 22 23 24 24 24 23 22 21 19 16 13 12 11 10 9 9 10 12 13 13 13
Wind_Direction
226 227 227 228 229 229 230 231 232 234 235 237 239 239 239 239 238 238 237 236 236 237 239 239 239 238 236 234 232 231 231 230 230 233 236 240 241 244 247 250 252 254 254 254 255 256 258 259 258 257 259 260 260 261 263 264 264 263 263 264 263 262 263 263 267 276 284 282 279 280 281 280 279 278 279 281 282 284 284 283 282 280 279 279 279
225 227 227 228 229 230 231 231 232 234 235 238 239 240 240 240 240 240 240 238 237 237 239 240 239 237 236 234 233 233 232 231 232 234 237 240 242 243 245 248 251 254 255 256 256 256 258 259 260 259 259 260 260 261 263 265 266 266 265 265 265 264 264 265 267 272 281 286 284 283 283 283 282 283 283 282 281 281 280 279 279 278 277 277 277
226 227 227 228 229 230 231 232 233 234 236 238 239 240 240 240 240 241 240 240 239 238 239 240 239 237 236 235 235 235 235 236 236 237 239 240 242 244 245 248 251 253 255 257 257 257 258 259 260 261 262 263 263 264 266 268 269 270 270 269 269 268 267 267 267 270 277 284 286 286 286 286 287 288 288 287 286 285 283 283 282 281 280 279 279
225 226 227 228 229 230 231 232 233 234 235 237 239 240 240 241 241 241 242 242 242 240 239 239 239 238 237 235 235 236 237 238 239 239 240 240 242 244 246 248 251 253 254 256 257 258 259 259 259 261 262 263 265 266 268 270 271 273 275 276 275 276 274 273 272 272 276 281 286 289 290 290 291 291 291 291 291 290 289 289 288 287 286 285 284
223 225 227 228 229 230 230 232 233 234 235 237 238 240 241 241 242 242 243 243 243 241 240 239 238 237 236 235 235 236 237 239 241 240 240 240 242 243 245 248 250 252 254 255 257 258 259 260 260 260 261 263 264 265 266 268 271 273 275 277 279 280 280 278 278 277 277 281 286 290 291 292 292 293 294 294 294 293 292 292 291 291 290 289 289
222 224 226 227 229 230 231 231 232 234 235 237 238 239 240 241 242 242 243 243 243 243 241 239 238 237 236 235 236 237 239 241 242 243 242 242 243 244 246 247 249 251 253 254 256 258 259 261 261 260 261 263 265 266 266 268 269 271 273 276 279 280 281 281 281 281 281 283 287 290 291 292 293 294 295 295 295 295 294 294 294 294 294 294 293
220 223 225 227 229 230 231 232 233 233 234 235 237 238 239 240 241 242 242 243 244 243 242 241 239 238 238 238 239 240 241 243 244 245 246 245 246 246 247 248 250 251 253 254 255 257 259 262 263 262 263 264 266 267 268 269 270 271 273 276 278 280 281 282 283 284 285 286 288 290 291 292 293 293 295 296 295 294 295 297 297 297 297 297 298
219 222 224 226 228 230 231 232 233 233 234 234 235 236 237 239 240 241 243 243 243 243 242 242 240 240 241 241 242 243 244 245 245 246 246 246 247 248 249 251 252 253 254 255 257 258 260 262 263 264 265 266 267 269 270 272 273 273 274 275 277 279 279 281 283 284 285 286 286 287 289 290 290 291 292 293 293 293 296 299 298 298 299 300 301
219 221 223 226 229 230 231 232 233 234 234 235 235 235 236 237 238 240 242 242 242 242 242 242 242 242 243 244 245 246 246 246 245 245 246 245 246 248 251 253 255 257 258 259 259 260 261 262 263 265 266 267 268 269 271 272 274 275 276 277 278 280 280 281 282 283 284 285 285 286 287 287 287 289 290 290 292 293 296 296 296 297 300 301 301
219 220 223 226 229 230 231 232 233 234 234 234 235 235 236 236 237 239 240 241 241 242 242 242 243 243 244 245 246 247 247 246 245 245 246 246 248 250 252 254 256 258 260 262 263 263 264 265 266 267 268 269 270 271 272 273 274 275 276 278 280 282 283 283 283 284 285 285 286 287 287 287 287 288 289 289 291 292 292 293 295 297 299 299 299
219 220 223 226 228 229 230 231 232 234 234 235 236 236 237 237 238 238 240 241 241 242 243 243 243 243 244 245 246 247 247 246 246 246 247 248 249 251 253 255 257 259 261 263 264 265 267 268 269 271 272 272 272 274 275 275 276 277 277 278 280 282 283 283 283 285 286 286 287 288 288 288 289 291 291 292 292 293 294 295 296 297 299 299 299
218 221 224 226 227 228 230 231 232 234 235 235 236 237 238 239 239 239 240 240 241 242 243 242 242 242 244 245 245 246 246 246 246 248 248 249 251 253 255 257 258 260 262 264 265 267 269 271 272 273 273 274 275 277 278 279 280 281 280 281 281 281 281 282 283 285 286 287 288 288 289 291 293 294 295 297 297 297 296 296 297 298 299 299 299
219 222 224 225 227 229 230 232 233 234 235 236 236 238 239 240 240 239 239 239 240 242 242 242 241 241 243 243 244 246 247 246 247 249 250 251 252 253 255 257 259 262 263 265 268 269 271 273 274 275 276 278 279 280 281 282 282 283 283 283 281 281 281 282 284 286 287 287 287 287 290 293 295 296 299 301 299 297 296 296 297 298 298 298 299
219 223 224 225 227 229 230 232 234 235 236 236 237 238 239 240 240 240 240 240 240 242 242 241 241 241 242 242 243 246 247 247 248 250 251 252 253 254 256 258 261 263 265 267 269 270 272 274 275 277 278 279 281 281 282 284 285 286 286 285 282 282 283 284 286 287 288 288 288 290 294 296 297 299 302 301 297 294 295 295 295 296 295 294 295
220 223 224 226 228 229 231 233 234 235 236 236 237 238 239 240 240 241 241 241 241 241 241 242 242 242 243 243 244 245 246 246 248 249 250 252 254 256 258 259 261 263 265 267 269 270 272 274 275 276 278 279 281 282 284 287 288 288 288 287 286 287 287 288 290 291 293 293 293 295 298 300 301 301 302 300 296 295 295 294 293 292 288 287 288
221 224 225 226 228 230 231 233 234 236 236 236 237 238 239 239 240 241 242 242 243 243 243 243 243 243 244 245 246 246 245 246 247 249 250 253 255 257 259 260 262 263 264 266 267 270 272 273 274 276 278 280 281 284 287 289 289 289 289 290 291 291 292 294 297 298 298 298 298 299 300 302 302 300 300 299 297 297 295 291 289 286 280 281 285
222 224 225 227 229 231 232 233 235 236 236 237 238 239 239 240 240 241 241 242 243 243 243 243 243 243 244 245 246 246 245 246 247 249 251 253 256 258 259 261 263 263 264 265 267 269 270 272 275 277 279 281 282 285 288 288 288 289 289 291 292 292 294 297 300 301 301 299 299 298 299 301 300 299 299 297 296 298 294 289 288 284 276 278 284
224 226 227 230 232 232 234 235 236 236 236 237 239 239 240 240 239 240 241 242 243 243 244 245 245 245 245 245 245 246 246 246 247 249 252 254 257 258 260 262 263 264 265 266 267 268 270 272 274 276 278 280 282 285 286 286 286 287 288 291 291 290 293 298 301 301 300 299 298 298 298 301 300 300 299 296 296 297 294 291 293 287 273 271 279
226 228 230 233 234 234 235 235 236 236 237 237 239 239 239 239 239 240 241 242 244 245 246 247 247 247 247 247 248 249 249 248 248 250 252 255 257 259 260 262 263 264 266 267 268 270 271 273 275 276 279 282 284 286 287 286 285 287 289 290 289 290 297 302 302 301 301 301 300 300 300 300 300 300 298 293 292 294 293 294 296 291 279 272 273
228 229 231 233 234 235 236 236 236 237 237 239 239 239 240 240 241 242 243 243 245 246 247 248 249 249 250 250 251 252 253 251 251 252 254 256 257 259 260 261 263 265 268 270 272 273 274 276 278 280 283 286 288 289 289 288 288 289 290 289 290 295 302 302 300 299 299 299 298 298 299 299 300 302 299 294 294 297 297 298 298 296 290 284 278
227 229 231 233 235 237 238 239 240 241 241 243 243 243 243 243 243 244 245 245 246 247 247 249 250 251 252 253 253 254 255 255 255 256 257 257 258 259 260 261 264 268 271 272 274 275 277 280 283 286 288 289 290 291 290 289 289 289 288 289 293 299 301 298 297 297 296 296 297 298 298 299 300 301 299 298 301 305 306 305 304 302 299 294 290
225 228 231 234 236 239 241 242 243 245 246 246 247 247 248 248 247 248 247 247 248 249 250 251 252 253 254 254 255 256 256 256 256 257 257 257 258 258 260 262 267 270 272 273 274 277 282 285 288 289 289 289 290 290 289 289 289 289 290 293 295 296 296 295 295 296 295 296 296 296 296 297 297 298 299 301 306 310 310 311 310 308 306 303 298
223 226 229 232 236 239 242 244 245 247 248 248 249 250 251 251 251 250 249 249 249 250 251 252 253 254 255 255 256 256 257 256 256 256 257 258 259 260 262 266 269 270 272 274 277 282 285 286 286 286 287 287 287 287 287 287 287 287 288 289 290 291 293 293 294 294 293 293 293 294 296 298 299 303 305 305 306 306 306 306 307 306 306 305 302
223 226 229 232 236 239 242 245 246 248 249 249 250 251 252 252 253 252 252 251 250 251 252 252 253 255 256 257 258 258 257 257 256 256 257 258 260 261 264 267 269 271 273 276 279 281 281 281 281 281 282 282 282 282 282 281 281 282 284 286 289 290 291 291 291 290 291 292 294 298 301 304 305 307 308 307 306 305 305 306 305 305 304 304 302
220 225 228 230 233 235 237 240 242 244 246 247 248 249 249 250 251 251 251 251 251 252 253 254 254 256 257 259 260 261 261 260 258 257 256 256 258 260 262 264 266 268 271 272 273 274 273 274 274 274 274 275 275 275 276 277 279 282 285 287 289 289 289 290 291 293 296 299 301 303 305 307 308 308 308 308 307 308 309 308 306 306 305 304 302
206 210 214 216 219 222 224 226 229 232 237 241 243 245 246 247 248 250 251 251 251 253 254 255 256 257 258 260 261 262 263 263 261 260 258 256 255 254 255 257 258 259 261 262 263 264 265 266 267 267 269 269 270 272 274 276 278 282 285 288 289 289 291 293 296 300 304 305 305 306 307 307 308 308 308 309 309 309 311 310 307 308 308 307 305
200 202 204 206 209 211 213 215 217 219 224 230 235 239 241 244 245 247 249 250 251 252 253 255 256 257 259 261 262 263 263 262 262 262 260 258 254 251 251 251 250 251 254 255 256 256 257 259 260 261 263 266 268 270 273 275 277 281 286 291 292 294 297 299 301 303 305 306 306 308 308 308 309 310 309 308 309 310 312 312 312 312 311 309 307
206 208 209 210 210 211 211 212 213 214 215 220 226 232 236 239 242 244 246 248 251 252 254 255 257 258 261 263 263 262 262 262 263 263 260 255 250 247 246 247 247 248 249 251 250 249 250 253 254 256 260 264 268 271 274 278 282 285 290 293 296 299 301 301 303 304 305 307 308 308 309 309 309 308 308 308 310 313 315 316 316 315 314 311 308
209 211 213 214 214 215 215 214 214 215 215 216 219 223 228 233 237 240 242 245 248 251 254 256 258 261 263 264 265 265 266 266 266 261 252 244 240 240 241 242 243 243 242 242 242 242 245 249 252 256 260 264 268 273 276 281 285 288 293 296 298 300 300 300 303 305 306 308 309 309 309 309 309 311 313 314 315 317 318 318 317 316 317 317 315
210 211 211 212 213 214 215 215 215 218 219 219 219 221 223 226 230 234 237 239 242 245 248 250 253 257 259 260 260 261 260 257 248 242 239 237 236 237 238 237 235 234 233 232 234 238 242 247 252 256 260 263 267 272 275 281 285 289 292 293 294 297 300 302 304 306 307 309 310 311 313 315 317 320 320 320 321 321 321 322 321 322 324 325 324
201 203 203 204 204 205 207 210 213 218 222 222 223 224 226 227 229 231 233 235 238 240 242 244 246 248 249 249 245 242 239 235 231 233 234 233 232 231 231 230 230 229 229 230 234 238 242 246 249 252 254 257 261 266 271 277 283 285 288 292 295 298 300 302 303 304 306 309 311 315 319 322 325 326 327 327 328 329 330 330 329 328 329 330 329
184 189 190 192 192 192 196 202 208 215 220 223 223 224 227 230 231 231 232 233 234 236 237 238 238 236 235 233 231 231 232 234 234 234 234 233 231 229 228 228 229 230 232 234 236 240 241 241 241 243 247 252 256 260 265 271 278 283 288 292 294 295 296 299 303 306 311 316 321 325 327 328 331 334 337 338 338 340 342 342 340 337 335 334 333
171 181 183 181 180 180 181 188 198 207 212 218 221 222 225 229 232 233 233 232 232 232 232 230 228 225 223 223 226 230 234 236 236 236 235 235 234 231 229 229 229 230 230 232 233 234 233 232 234 238 244 248 250 255 265 274 280 286 288 288 291 296 301 306 311 317 324 330 334 335 336 338 341 345 347 348 347 348 350 350 349 347 344 341 339
134 155 171 175 172 168 165 169 175 182 189 196 206 217 223 227 231 234 235 232 229 228 226 223 221 219 217 219 226 233 237 238 237 236 231 224 221 222 225 226 226 224 220 219 221 224 226 230 235 236 236 238 244 256 272 279 281 285 288 292 300 307 313 320 326 331 337 341 342 344 347 350 353 354 354 354 353 352 354 355 354 353 352 351 348
91 97 126 154 166 164 160 161 162 165 171 178 188 205 218 223 226 230 232 233 230 225 220 218 217 216 217 222 229 231 226 223 223 225 220 210 204 206 212 217 219 218 216 215 214 211 212 220 222 217 218 225 238 253 263 272 279 290 300 309 320 326 331 335 339 343 349 352 352 355 358 359 360 360 359 359 359 359 359 360 358 356 355 355 354
72 67 76 99 134 156 163 166 169 172 177 180 186 199 210 217 221 222 222 224 224 222 219 217 217 217 216 216 220 218 207 199 201 203 203 199 193 190 194 202 207 206 203 198 188 177 176 182 187 190 194 201 215 236 251 273 298 320 332 339 344 344 343 346 352 358 2 2 1 4 7 6 6 5 4 3 4 4 2 2 1 360 358 355 354
64 52 48 59 82 119 158 177 186 192 195 197 202 206 211 216 219 219 218 218 217 217 217 216 214 213 205 196 195 198 194 187 182 180 179 181 178 167 156 157 165 166 161 157 157 158 160 164 166 167 169 174 187 212 318 14 15 10 4 359 358 356 356 1 10 14 13 12 11 13 14 12 11 9 7 5 4 4 3 3 3 3 1 356 354
55 44 28 20 25 29 16 213 205 207 209 210 209 209 211 214 215 214 215 214 210 208 210 209 204 199 190 178 173 177 178 173 167 161 158 159 160 153 143 138 139 144 147 148 149 149 150 151 150 148 149 146 123 86 67 58 51 37 23 16 17 21 23 25 29 30 27 24 21 20 19 17 13 10 8 6 4 2 2 3 3 3 2 359 355
43 37 26 13 2 359 3 352 255 220 216 213 210 208 209 210 206 203 204 203 194 186 183 183 179 171 162 155 151 152 152 149 145 141 137 134 134 132 131 132 137 142 145 143 141 139 139 137 133 128 124 113 100 92 88 85 83 76 60 49 47 48 49 47 45 43 38 32 27 25 22 18 15 11 8 5 3 1 0 1 2 3 2 359 356
31 26 17 4 355 352 357 0 321 232 216 208 203 201 201 199 195 191 190 187 179 167 157 153 148 140 134 133 136 138 140 137 134 133 131 130 129 127 127 129 133 135 134 132 131 130 126 123 121 119 118 114 111 109 108 106 103 95 85 77 73 69 67 61 52 45 38 31 27 24 20 16 14 11 8 6 4 1 358 358 0 2 3 1 357
31 25 13 359 348 343 341 3 165 193 202 201 199 196 193 188 184 179 172 165 159 150 140 132 126 125 127 131 134 138 141 140 138 138 136 135 134 135 136 138 139 137 134 131 128 127 126 125 123 121 121 124 126 125 125 126 122 114 108 103 96 85 73 60 45 35 29 23 18 16 14 12 10 8 6 5 4 1 358 356 356 358 1 2 359
38 35 23 12 353 311 227 186 178 180 187 192 192 189 186 181 175 167 154 142 134 132 132 130 127 129 135 138 140 144 149 148 146 147 145 144 145 146 148 150 151 151 151 151 149 149 149 148 146 146 149 154 159 159 161 164 162 155 151 147 140 123 35 10 5 4 4 2 1 2 2 3 4 2 1 1 1 0 358 356 354 354 358 0 1
29 39 41 64 183 195 186 181 182 180 178 178 177 176 178 177 170 158 146 137 134 137 140 141 138 138 139 141 144 152 157 155 152 152 152 153 155 157 159 163 167 170 173 175 174 176 179 178 181 186 189 192 197 198 199 201 203 205 208 213 227 253 282 306 319 326 334 339 341 343 345 347 350 354 353 353 355 356 357 356 354 353 355 358 359
246 236 212 189 188 187 181 178 176 172 170 171 171 169 169 167 161 153 147 144 145 145 145 144 144 144 143 144 150 158 161 156 153 153 154 154 157 160 164 172 180 187 194 200 204 212 218 220 222 225 225 226 229 233 235 236 238 241 244 246 251 263 277 289 299 306 312 316 319 323 327 330 334 339 342 344 346 349 352 353 352 352 353 354 355
223 221 214 201 192 187 182 179 175 169 166 165 162 158 155 154 153 152 151 150 150 152 153 153 154 155 154 154 159 165 166 162 161 161 160 160 163 167 171 182 192 202 213 224 234 243 249 251 250 249 248 250 252 254 256 257 257 257 257 257 259 265 273 279 285 290 295 299 303 307 312 315 318 321 325 330 336 340 343 346 346 346 348 349 352
213 210 206 200 193 185 180 178 175 170 166 162 157 153 152 153 155 155 155 154 155 156 157 157 160 162 163 164 169 175 177 177 178 178 179 182 187 191 198 207 215 223 235 246 253 260 265 266 265 261 259 260 262 264 265 267 266 265 263 263 263 266 269 273 277 282 285 288 291 295 299 302 305 307 308 313 321 328 332 335 337 339 341 343 346
208 202 196 192 186 179 173 170 168 166 163 160 157 155 155 156 156 155 153 153 154 156 157 159 163 167 170 173 177 182 186 190 193 196 200 206 210 216 222 228 232 239 249 256 261 266 270 272 273 271 267 264 264 267 268 268 268 268 267 266 265 265 267 269 273 278 281 283 285 287 290 292 294 295 296 300 306 312 316 319 325 330 334 335 336
199 191 184 179 175 170 166 163 161 160 158 157 157 157 156 156 156 156 155 155 157 158 160 162 165 168 173 178 183 187 192 198 205 211 217 221 226 231 236 241 245 251 256 259 260 262 264 266 270 273 272 268 267 268 269 269 269 269 269 268 267 267 269 271 273 275 277 279 281 283 285 286 286 287 289 292 296 298 299 301 306 314 323 327 327
175 170 165 161 159 157 156 156 155 154 153 153 153 153 153 153 153 154 154 155 156 158 161 165 167 171 174 177 179 183 189 193 197 201 203 207 216 226 234 241 250 258 264 268 270 273 275 277 279 282 282 280 279 281 282 281 279 277 275 273 271 271 271 273 274 275 275 276 278 279 279 279 279 279 282 285 287 287 287 287 288 293 301 308 311
145 145 145 145 145 145 146 147 146 144 143 145 145 143 142 142 142 141 143 145 144 142 142 143 144 146 147 146 146 150 157 163 165 166 170 181 200 231 258 275 284 289 292 296 299 302 304 303 302 302 302 302 301 301 300 298 295 292 288 284 281 279 278 279 279 278 276 275 275 275 273 272 271 271 273 276 279 279 281 282 283 283 286 289 292
135 136 136 136 136 136 136 136 134 133 133 135 135 133 131 129 127 124 124 125 123 120 117 116 116 117 116 116 116 113 108 102 97 92 87 81 71 53 29 4 351 342 335 333 332 330 326 323 321 319 317 316 316 316 317 317 314 311 306 302 297 293 291 290 289 286 280 276 274 273 271 269 267 263 259 260 264 267 269 274 280 281 281 281 284